Regional Weather Roundup
Issued by NWS

Home | Current Version | Previous Version | Graphics & Text | Print | Product List | Glossary Off
Versions: 1 2 3 4 5 6 7 8 9 10 11 12 13 14 15 16 17 18 19 20 21 22 23 24 25 26 27 28 29 30 31 32 33 34 35 36 37 38 39 40 41 42 43 44 45 46 47 48 49 50

000
ASUS45 KSLC 271210
RWRUT

UTAH REGIONAL WEATHER ROUNDUP
NATIONAL WEATHER SERVICE SALT LAKE CITY UT
600 AM MDT SAT MAY 27 2017

UTZ001>011-023>025-271300-

NORTHERN UTAH

CITY           SKY/WX    TMP DP  RH WIND       PRES   REMARKS
BRIGHAM CITY   CLEAR     44  37  74 CALM      30.16S
HILL AFB       CLEAR     43  35  72 E9        30.16R
LOGAN          CLEAR     39  34  82 CALM      30.17R
OGDEN          CLEAR     42  35  76 S5        30.15R
SALT LAKE CITY PTCLDY    46  37  71 SE7       30.14R
TOOELE VALLEY  PTCLDY    41  37  87 S3        30.16R
WENDOVER       CLEAR     48  36  63 CALM      30.17R
HEBER CITY     CLEAR     36  30  80 E7        30.15R WCI  30
WEST JORDAN    CLEAR     44  42  90 CALM      30.16R

$$

UTZ011>015-024>027-271300-

CENTRAL/NORTHEAST UTAH

CITY           SKY/WX    TMP DP  RH WIND       PRES   REMARKS
PROVO AIRPORT  MOCLDY    48  37  65 CALM      30.16R
MOAB/CANYONLAN MOCLDY    58  25  28 W9        30.02R
DELTA          CLEAR     43  34  70 NE6       30.14R
PRICE          PTCLDY    47  31  53 NW8       30.09R
ROOSEVELT      CLEAR     46  36  66 W6        30.10R
VERNAL         PTCLDY    49  36  61 VRB6      30.08R

$$

UTZ013>016-019>022-027-271300-

SOUTHERN UTAH

CITY           SKY/WX    TMP DP  RH WIND       PRES   REMARKS
BRYCE CANYON   CLEAR     33  27  78 NW7       30.19R WCI  27
CEDAR CITY     CLEAR     41  31  67 CALM      30.12R
MILFORD        CLOUDY    48  35  60 NW6       30.12R
ST GEORGE      SUNNY     67  35  30 VRB5      29.98R
HANKSVILLE     PTCLDY    55  30  38 NW5       30.08S
BLANDING       CLEAR     48  29  47 N3        30.12S

$$

REGIONAL REPORTS     COLORADO/ARIZONA

CITY           SKY/WX    TMP DP  RH WIND       PRES   REMARKS
CRAIG, CO      LGT RAIN  43  39  86 NE6       30.12R
GRAND JUNCTION PTCLDY    52  33  48 N9        30.04S
RIFLE, CO      CLOUDY    52  39  61 VRB3      30.09R
MONTROSE, CO   CLEAR     48  32  53 SE6       30.10R
CORTEZ, CO     CLEAR     44  29  55 NE5       30.07R
COLORADO CITY    N/A     45  28  53 CALM      30.08R
PAGE, AZ       CLEAR     63  32  31 W6        30.01R
GRAND CANYON   CLEAR     32  24  72 CALM      30.15R
KINGMAN, AZ    CLEAR     56  26  31 SE14      29.97R
FLAGSTAFF, AZ  CLEAR     37  24  59 CALM      30.16R

$$

REGIONAL REPORTS    NEVADA/IDAHO/WYOMING

CITY           SKY/WX    TMP DP  RH WIND       PRES   REMARKS
LAS VEGAS, NV  CLEAR     71  26  18 S3        29.89R
ELY, NY        CLEAR     30  21  69 S7        30.19R WCI  23
ELKO, NV       CLEAR     36  31  82 CALM      30.18R
POCATELLO, ID  PTCLDY    37  36  96 CALM      30.18R
BURLEY, ID     CLEAR     40  37  89 SW7       30.16R
FORT BRIDGER,    N/A     36  34  93 SW9       30.20R WCI  29
EVANSTON, WY   CLOUDY    35  33  92 NW5       30.18R WCI  31
ROCK SPRINGS,  CLOUDY    36  35  96 SW3       30.14R
KEMMERER, WY     N/A     32  30  93 NW3       30.17R

$$



USA.gov is the U.S. government's official web portal to all federal, state and local government web resources and services.